Location: Winnipeg
(49.8830°N, 97.1670°W)
Time: 03:57:14
(UTC-06:00)

ISS - Pass Details

Date: 31 January 2021
Orbit: 417 x 422 km, 51.6° (Epoch: 07 March)

Event Time Altitude Azimuth Distance (km) Brightness Sun altitude
Rises 18:48:53 0° 286° (WNW) 2,376 1.3 -14.0°
Reaches altitude 10° 18:50:59 10° 286° (WNW) 1,510 0.1 -14.4°
Maximum altitude 18:54:23 88° 194° (SSW) 428 -3.8 -14.9°
Enters shadow 18:55:55 30° 109° (ESE) 782 -2.9 -15.2°
